• In Schweiz
  • Länderverzeichnis
  • Für 7 Tage
  • Wassertemperatur
  • Satellitenkarten
  • Wetterkarte
  • Widgets
  • user-avatar
    Anmelden

    Stündliche Wetter Kalemie

    Heute, 15 Dezember, Freitag

    Zeit Temperatur Niederschläge Wind Luftdruck Luftfeuchtigkeit
    00:00 +27°C° 0 mm 1 m/S 705 mmHg 26%
    01:00 +27°C° 0 mm 1 m/S 705 mmHg 27%
    02:00 +26°C° 0 mm 1 m/S 705 mmHg 28%
    03:00 +26°C° 0 mm 1 m/S 705 mmHg 29%
    04:00 +25°C° 0 mm 1 m/S 705 mmHg 30%
    05:00 +23°C° 0 mm 0 m/S 705 mmHg 30%
    06:00 +27°C° 0 mm 1 m/S 706 mmHg 28%
    07:00 +29°C° 0 mm 1 m/S 707 mmHg 25%
    08:00 +31°C° 0 mm 1 m/S 707 mmHg 23%
    09:00 +33°C° 0 mm 1 m/S 707 mmHg 20%
    10:00 +36°C° 0 mm 2 m/S 707 mmHg 18%
    11:00 +39°C° 0 mm 3 m/S 707 mmHg 15%
    12:00 +40°C° 0 mm 3 m/S 707 mmHg 15%
    13:00 +40°C° 0 mm 2 m/S 706 mmHg 14%
    14:00 +41°C° 0 mm 2 m/S 705 mmHg 13%
    15:00 +40°C° 0 mm 2 m/S 705 mmHg 14%
    16:00 +40°C° 0 mm 2 m/S 704 mmHg 14%
    17:00 +39°C° 0 mm 2 m/S 704 mmHg 15%
    18:00 +37°C° 0 mm 2 m/S 704 mmHg 17%
    19:00 +35°C° 0 mm 2 m/S 704 mmHg 19%
    20:00 +32°C° 0 mm 1 m/S 704 mmHg 21%
    21:00 +31°C° 0 mm 1 m/S 704 mmHg 22%
    22:00 +30°C° 0 mm 1 m/S 705 mmHg 23%
    23:00 +30°C° 0 mm 1 m/S 705 mmHg 23%

    Morgen, 16 Dezember, Samstag

    Zeit Temperatur Niederschläge Wind Luftdruck Luftfeuchtigkeit
    00:00 +29°C° 0 mm 1 m/S 704 mmHg 24%
    01:00 +28°C° 0 mm 1 m/S 704 mmHg 25%
    02:00 +27°C° 0 mm 1 m/S 704 mmHg 25%
    03:00 +27°C° 0 mm 1 m/S 704 mmHg 26%
    04:00 +26°C° 0 mm 1 m/S 704 mmHg 27%
    05:00 +26°C° 0 mm 1 m/S 704 mmHg 27%
    06:00 +27°C° 0 mm 2 m/S 705 mmHg 25%
    07:00 +29°C° 0 mm 3 m/S 706 mmHg 23%
    08:00 +30°C° 0 mm 3 m/S 706 mmHg 21%
    09:00 +33°C° 0 mm 3 m/S 707 mmHg 19%
    10:00 +36°C° 0 mm 3 m/S 707 mmHg 16%
    11:00 +38°C° 0 mm 3 m/S 707 mmHg 14%
    12:00 +39°C° 0 mm 3 m/S 706 mmHg 13%
    13:00 +40°C° 0 mm 3 m/S 705 mmHg 13%
    14:00 +42°C° 0 mm 3 m/S 704 mmHg 12%
    15:00 +40°C° 0 mm 2 m/S 704 mmHg 13%
    16:00 +40°C° 0 mm 2 m/S 703 mmHg 13%
    17:00 +39°C° 0 mm 2 m/S 703 mmHg 13%
    18:00 +37°C° 0 mm 2 m/S 703 mmHg 15%
    19:00 +34°C° 0 mm 1 m/S 704 mmHg 17%
    20:00 +31°C° 0 mm 1 m/S 704 mmHg 19%
    21:00 +31°C° 0 mm 1 m/S 704 mmHg 20%
    22:00 +30°C° 0 mm 1 m/S 704 mmHg 20%
    23:00 +29°C° 0 mm 1 m/S 704 mmHg 21%

    übermorgen, 17 Dezember, Sonntag

    Zeit Temperatur Niederschläge Wind Luftdruck Luftfeuchtigkeit
    00:00 +29°C° 0 mm 1 m/S 704 mmHg 22%
    01:00 +28°C° 0 mm 1 m/S 704 mmHg 22%
    02:00 +27°C° 0 mm 1 m/S 704 mmHg 23%
    03:00 +27°C° 0 mm 1 m/S 704 mmHg 23%
    04:00 +26°C° 0 mm 1 m/S 704 mmHg 24%
    05:00 +25°C° 0 mm 1 m/S 704 mmHg 24%
    06:00 +27°C° 0 mm 2 m/S 704 mmHg 22%
    07:00 +28°C° 0 mm 2 m/S 705 mmHg 19%
    08:00 +30°C° 0 mm 2 m/S 706 mmHg 17%
    09:00 +33°C° 0 mm 3 m/S 706 mmHg 16%
    10:00 +36°C° 0 mm 3 m/S 706 mmHg 14%
    11:00 +38°C° 0 mm 3 m/S 707 mmHg 13%
    12:00 +39°C° 0 mm 3 m/S 706 mmHg 13%
    13:00 +40°C° 0 mm 3 m/S 705 mmHg 12%
    14:00 +42°C° 0 mm 3 m/S 704 mmHg 12%
    15:00 +40°C° 0 mm 3 m/S 703 mmHg 13%
    16:00 +40°C° 0 mm 2 m/S 703 mmHg 13%
    17:00 +39°C° 0 mm 2 m/S 703 mmHg 14%
    18:00 +37°C° 0 mm 2 m/S 703 mmHg 16%
    19:00 +35°C° 0 mm 2 m/S 703 mmHg 18%
    20:00 +31°C° 0 mm 1 m/S 704 mmHg 20%
    21:00 +31°C° 0 mm 1 m/S 704 mmHg 20%
    22:00 +30°C° 0 mm 1 m/S 704 mmHg 21%
    23:00 +29°C° 0 mm 1 m/S 704 mmHg 22%

    18 Dezember, Montag

    Zeit Temperatur Niederschläge Wind Luftdruck Luftfeuchtigkeit
    00:00 +29°C° 0 mm 1 m/S 704 mmHg 23%
    01:00 +28°C° 0 mm 1 m/S 704 mmHg 24%
    02:00 +28°C° 0 mm 1 m/S 703 mmHg 24%
    03:00 +28°C° 0 mm 1 m/S 704 mmHg 25%
    04:00 +27°C° 0 mm 1 m/S 704 mmHg 26%
    05:00 +27°C° 0 mm 1 m/S 704 mmHg 27%
    06:00 +29°C° 0 mm 1 m/S 705 mmHg 25%
    07:00 +30°C° 0 mm 1 m/S 705 mmHg 23%
    08:00 +32°C° 0 mm 2 m/S 706 mmHg 22%
    09:00 +35°C° 0 mm 2 m/S 706 mmHg 21%
    10:00 +37°C° 0 mm 3 m/S 706 mmHg 19%
    11:00 +39°C° 0 mm 3 m/S 706 mmHg 18%
    12:00 +39°C° 0 mm 3 m/S 705 mmHg 19%
    13:00 +39°C° 0 mm 3 m/S 704 mmHg 19%
    14:00 +39°C° 0 mm 2 m/S 704 mmHg 20%
    15:00 +39°C° 0 mm 2 m/S 703 mmHg 21%
    16:00 +38°C° 0 mm 2 m/S 703 mmHg 22%
    17:00 +38°C° 0 mm 2 m/S 703 mmHg 22%
    18:00 +36°C° 0 mm 2 m/S 703 mmHg 26%
    19:00 +35°C° 0 mm 2 m/S 704 mmHg 29%
    20:00 +32°C° 0 mm 2 m/S 704 mmHg 32%
    21:00 +31°C° 0 mm 1 m/S 704 mmHg 33%
    22:00 +31°C° 0 mm 1 m/S 704 mmHg 34%
    23:00 +30°C° 0 mm 1 m/S 704 mmHg 35%

    19 Dezember, Dienstag

    Zeit Temperatur Niederschläge Wind Luftdruck Luftfeuchtigkeit
    00:00 +30°C° 0 mm 1 m/S 704 mmHg 36%
    01:00 +30°C° 0 mm 1 m/S 704 mmHg 36%
    02:00 +30°C° 0 mm 1 m/S 703 mmHg 37%
    03:00 +29°C° 0 mm 1 m/S 704 mmHg 38%
    04:00 +29°C° 0 mm 1 m/S 704 mmHg 39%
    05:00 +28°C° 0 mm 1 m/S 704 mmHg 41%
    06:00 +30°C° 0 mm 1 m/S 705 mmHg 37%
    07:00 +31°C° 0 mm 1 m/S 705 mmHg 34%
    08:00 +34°C° 0 mm 2 m/S 706 mmHg 31%
    09:00 +36°C° 0 mm 2 m/S 706 mmHg 26%
    10:00 +38°C° 0 mm 3 m/S 706 mmHg 22%
    11:00 +40°C° 0 mm 3 m/S 706 mmHg 18%
    12:00 +40°C° 0 mm 3 m/S 705 mmHg 18%
    13:00 +39°C° 0 mm 3 m/S 704 mmHg 19%
    14:00 +39°C° 0 mm 2 m/S 703 mmHg 19%
    15:00 +38°C° 0 mm 2 m/S 703 mmHg 20%
    16:00 +38°C° 0 mm 2 m/S 703 mmHg 20%
    17:00 +37°C° 0 mm 2 m/S 703 mmHg 21%
    18:00 +36°C° 0 mm 2 m/S 703 mmHg 22%
    19:00 +35°C° 0 mm 2 m/S 704 mmHg 24%
    20:00 +32°C° 0 mm 2 m/S 704 mmHg 26%
    21:00 +32°C° 0 mm 2 m/S 704 mmHg 27%
    22:00 +31°C° 0 mm 2 m/S 704 mmHg 28%
    23:00 +30°C° 0 mm 2 m/S 704 mmHg 30%

    20 Dezember, Mittwoch

    Zeit Temperatur Niederschläge Wind Luftdruck Luftfeuchtigkeit
    00:00 +30°C° 0 mm 1 m/S 704 mmHg 31%
    01:00 +29°C° 0 mm 1 m/S 704 mmHg 31%
    02:00 +28°C° 0 mm 1 m/S 703 mmHg 32%
    03:00 +28°C° 0 mm 1 m/S 704 mmHg 33%
    04:00 +28°C° 0 mm 1 m/S 704 mmHg 33%
    05:00 +27°C° 0 mm 1 m/S 704 mmHg 33%
    06:00 +29°C° 0 mm 2 m/S 705 mmHg 30%
    07:00 +30°C° 0 mm 2 m/S 705 mmHg 28%
    08:00 +32°C° 0 mm 2 m/S 706 mmHg 25%
    09:00 +34°C° 0 mm 2 m/S 706 mmHg 23%
    10:00 +36°C° 0 mm 2 m/S 706 mmHg 21%
    11:00 +37°C° 0 mm 2 m/S 706 mmHg 20%
    12:00 +38°C° 0 mm 2 m/S 705 mmHg 19%
    13:00 +39°C° 0 mm 2 m/S 704 mmHg 17%
    14:00 +40°C° 0 mm 2 m/S 704 mmHg 16%
    15:00 +39°C° 0 mm 2 m/S 704 mmHg 17%
    16:00 +38°C° 0 mm 2 m/S 704 mmHg 18%
    17:00 +37°C° 0 mm 2 m/S 704 mmHg 19%
    18:00 +36°C° 0 mm 2 m/S 704 mmHg 21%
    19:00 +34°C° 0 mm 2 m/S 704 mmHg 23%
    20:00 +31°C° 0 mm 2 m/S 704 mmHg 26%
    21:00 +31°C° 0 mm 1 m/S 704 mmHg 27%
    22:00 +30°C° 0 mm 1 m/S 704 mmHg 28%
    23:00 +29°C° 0 mm 1 m/S 704 mmHg 28%
    Mehr zeigen